[[{"header":{"parameterUnit":"m.s-1","parameterCategory":1,"la1":30.2991,"la2":30.254,"lo1":-89.0895,"lo2":-89.0444,"dy":0.0017,"dx":0.0017,"nx":28,"ny":28,"refTime":"2026-01-11T03:00:00:Z","depth":0,"parameterNumber":2,"parameterNumberName":"U-component_of_WINDS"},"data":[0,0,0,0,0,0,0,0,0,0,0,0,0,0,0,0,0,0,0,0,0,0,0,0,0,0,0,0,0,0,0,0,0,0,0,0,0,0,0,0,0,0,0,0,0,0,0,0,0,0,0,0,0,0,0,0,0,0,-0.5402,-0.5403,0,-0.5488,-0.5489,-0.549,-0.5487,-0.5486,-0.5485,-0.5484,-0.5575,-0.5578,-0.5582,0,0,0,0,0,0,0,0,0,0,0,0,0,-0.5238,-0.5241,-0.5402,-0.5403,-0.5404,-0.5488,-0.5489,-0.549,-0.5487,-0.5486,-0.5484,-0.5483,-0.5574,-0.5578,-0.5582,0,0,0,0,0,0,0,0,0,0,0,0,0,-0.5315,-0.5242,-0.5402,-0.5413,-0.5415,-0.5488,-0.5489,-0.549,-0.5488,-0.5486,-0.5484,-0.5482,-0.5572,-0.5577,-0.5583,-0.5652,0,0,-0.5599,-0.5601,0,0,0,0,0,0,0,0,-0.5311,-0.5321,-0.541,-0.5412,-0.5414,-0.5475,-0.5465,-0.5545,-0.5488,-0.546,-0.5483,-0.5481,-0.5543,-0.5551,-0.5571,-0.5656,-0.566,-0.5599,-0.5603,-0.5605,-0.5606,0,0,0,0,0,0,0,-0.5305,-0.5317,-0.5436,-0.5411,-0.5414,-0.5414,-0.5423,-0.548,-0.5511,-0.5462,-0.5462,-0.5472,-0.5544,-0.5566,-0.5573,-0.5661,-0.5599,-0.5604,-0.5607,-0.5609,-0.5807,-0.5808,0,0,0,0,0,0,-0.5297,-0.5313,-0.5433,-0.5439,-0.5357,-0.5418,-0.5429,-0.5457,-0.551,-0.5516,-0.5474,-0.5472,-0.5558,-0.5567,-0.5576,-0.5661,-0.5605,-0.561,-0.5613,-0.5804,-0.5807,-0.5809,0,0,0,0,0,0,-0.5294,-0.5308,-0.543,-0.5376,-0.5391,-0.5423,-0.5456,-0.546,-0.5482,-0.5519,-0.5524,-0.549,-0.5557,-0.5569,-0.5633,-0.5664,-0.5612,-0.5617,-0.5802,-0.5805,-0.5808,-0.583,0,0,0,0,0,0,-0.5289,-0.5307,-0.5333,-0.5376,-0.5394,-0.5484,-0.5457,-0.5463,-0.5491,-0.5489,-0.5536,-0.5542,-0.5556,-0.5625,-0.5638,-0.567,-0.5621,-0.5799,-0.5803,-0.5807,-0.5827,-0.5833,-0.5839,0,0,0,0,0,-0.5283,-0.5336,-0.5334,-0.5349,-0.5427,-0.5486,-0.5496,-0.5511,-0.5493,-0.552,-0.5543,-0.554,-0.5658,-0.5631,-0.5646,-0.5681,-0.5798,-0.5802,-0.5807,-0.5824,-0.5832,-0.5839,0,0,0,0,0,0,-0.5297,-0.5342,-0.5341,-0.5409,-0.5444,-0.5485,-0.552,-0.5519,-0.556,-0.5557,-0.5574,-0.5585,-0.5649,-0.5671,-0.564,-0.575,-0.5726,-0.5733,-0.5733,-0.5742,-0.5748,-0.5742,-0.5626,0,0,0,0,0,-0.5308,-0.5351,-0.5388,-0.5445,-0.5463,-0.5488,-0.5514,-0.5522,-0.5559,-0.5574,-0.5602,-0.5639,-0.5684,-0.5714,-0.5757,-0.5829,-0.584,-0.586,-0.5866,-0.5871,-0.5878,-0.5918,-0.5928,-0.5824,-0.5824,-0.5824,0,0,-0.5332,-0.5361,-0.5388,-0.5449,-0.5477,-0.5522,-0.5501,-0.5549,-0.5583,-0.5582,-0.5644,-0.5665,-0.5708,-0.5775,-0.5807,-0.5796,-0.5909,-0.5877,-0.5881,-0.5885,-0.5924,-0.5934,-0.5942,-0.5827,-0.5827,-0.5826,0,0,-0.5397,-0.5424,-0.5474,-0.5502,-0.5543,-0.556,-0.5572,-0.5613,-0.5628,-0.5689,-0.5689,-0.573,-0.5807,-0.5837,-0.5863,-0.5938,-0.5937,-0.5952,-0.5985,-0.6024,-0.6032,-0.6039,-0.6067,-0.6077,-0.5958,-0.5958,-0.5958,0,-0.5422,-0.5489,-0.5501,-0.5549,-0.5576,-0.5575,-0.5627,-0.5654,-0.5708,-0.5727,-0.5713,-0.581,-0.5838,-0.5913,-0.5931,-0.5951,-0.5966,-0.5947,-0.6029,-0.6037,-0.6044,-0.6071,-0.6081,-0.596,-0.596,-0.596,-0.5959,0,-0.5517,-0.5563,-0.5599,-0.565,-0.5681,-0.5731,-0.5751,-0.5781,-0.5785,-0.5803,-0.5866,-0.59,-0.595,-0.5968,-0.5974,-0.6044,-0.6036,-0.6026,-0.6002,-0.6055,-0.6081,-0.6091,-0.5962,-0.5962,-0.5961,-0.5961,0,0,-0.5596,-0.5651,-0.5665,-0.5687,-0.5732,-0.5769,-0.5819,-0.5866,-0.5892,-0.5929,-0.5972,-0.6036,-0.6027,-0.6055,-0.6064,-0.6098,-0.6156,-0.6083,-0.6085,-0.6097,-0.6236,-0.6244,-0.6256,-0.6154,-0.6156,-0.6158,-0.6233,0,-0.5667,-0.5755,-0.5766,-0.5844,-0.5887,-0.5886,-0.593,-0.5962,-0.598,-0.602,-0.6039,-0.6085,-0.6069,-0.6086,-0.6119,-0.6142,-0.6184,-0.6136,-0.6196,-0.6198,-0.6187,-0.6269,-0.6279,-0.6348,-0.6243,-0.6244,-0.6246,0,-0.5763,-0.5801,-0.5883,-0.5921,-0.594,-0.5978,-0.6023,-0.6061,-0.6097,-0.6108,-0.6139,-0.6143,-0.6195,-0.6168,-0.624,-0.6207,-0.6232,-0.6246,-0.6249,-0.6257,-0.6226,-0.628,-0.637,-0.6381,-0.6261,-0.626,-0.6259,0,-0.5814,-0.5885,-0.5944,-0.5963,-0.6009,-0.6036,-0.6057,-0.6092,-0.612,-0.6159,-0.6177,-0.6222,-0.6247,-0.6281,-0.6298,-0.6276,-0.6369,-0.6343,-0.638,-0.638,-0.6402,-0.6401,-0.6498,-0.6415,-0.6415,-0.6415,-0.6415,0,-0.5893,-0.5944,-0.5967,-0.6003,-0.6059,-0.6072,-0.6128,-0.6147,-0.6178,-0.6218,-0.622,-0.6258,-0.6276,-0.6317,-0.633,-0.6388,-0.6399,-0.641,-0.6413,-0.6411,-0.641,-0.6428,-0.6425,-0.6417,-0.6417,-0.6416,-0.6416,0,-0.5961,-0.5978,-0.6041,-0.6079,-0.609,-0.613,-0.6162,-0.6197,-0.6213,-0.6265,-0.6277,-0.6303,-0.6351,-0.637,-0.643,-0.6438,-0.6506,-0.6504,-0.6493,-0.6494,-0.6531,-0.6528,-0.6645,-0.6662,-0.6567,-0.6568,-0.6568,0,-0.6011,-0.6049,-0.6091,-0.6117,-0.6138,-0.6181,-0.6209,-0.6222,-0.6251,-0.6295,-0.6326,-0.6373,-0.6412,-0.6489,-0.6514,-0.6559,-0.6559,-0.6597,-0.6566,-0.6563,-0.6561,-0.6559,-0.6563,-0.6604,-0.6605,-0.6605,-0.6606,0,-0.6099,-0.6105,-0.6145,-0.6187,-0.622,-0.6255,-0.6288,-0.631,-0.6329,-0.6362,-0.641,-0.644,-0.6499,-0.6547,-0.6593,-0.6615,-0.6614,-0.6615,-0.6626,-0.6625,-0.6618,-0.6623,-0.651,-0.6613,-0.6612,-0.6612,-0.6611,-0.6611,-0.616,-0.6194,-0.6228,-0.6272,-0.6298,-0.6329,-0.6364,-0.6384,-0.6424,-0.6473,-0.6478,-0.6531,-0.6566,-0.6627,-0.6651,-0.6692,-0.6683,-0.6699,-0.6703,-0.6707,-0.671,-0.6609,-0.6701,-0.6701,-0.67,-0.67,-0.67,0,-0.6249,-0.627,-0.631,-0.6357,-0.6391,-0.6385,-0.6422,-0.6452,-0.6497,-0.6529,-0.6567,-0.6623,-0.6668,-0.6696,-0.6742,-0.6769,-0.677,-0.6781,-0.678,-0.6785,-0.6716,-0.6702,-0.678,-0.678,-0.678,-0.678,-0.678,-0.678,-0.6299,-0.6357,-0.6367,-0.6437,-0.6458,-0.6509,-0.653,-0.6559,-0.6585,-0.6646,-0.6684,-0.67,-0.6731,-0.6779,-0.6821,-0.6828,-0.6845,-0.6857,-0.6863,-0.6798,-0.679,-0.6782,-0.677,-0.686,-0.686,-0.693,-0.693,-0.6931]},{"header":{"parameterUnit":"m.s-1","parameterCategory":1,"la1":30.2991,"la2":30.254,"lo1":-89.0895,"lo2":-89.0444,"dy":0.0017,"dx":0.0017,"nx":28,"ny":28,"refTime":"2026-01-11T03:00:00:Z","depth":0,"parameterNumber":3,"parameterNumberName":"V-component_of_WINDS"},"data":[0,0,0,0,0,0,0,0,0,0,0,0,0,0,0,0,0,0,0,0,0,0,0,0,0,0,0,0,0,0,0,0,0,0,0,0,0,0,0,0,0,0,0,0,0,0,0,0,0,0,0,0,0,0,0,0,0,0,-7.1711,-7.1713,0,-7.188,-7.1882,-7.1884,-7.1803,-7.1799,-7.1795,-7.1791,-7.1962,-7.197,-7.1979,0,0,0,0,0,0,0,0,0,0,0,0,0,-7.1315,-7.1323,-7.1711,-7.1713,-7.1715,-7.188,-7.1882,-7.1885,-7.1804,-7.1799,-7.1794,-7.1789,-7.1959,-7.1969,-7.1979,0,0,0,0,0,0,0,0,0,0,0,0,0,-7.1486,-7.1325,-7.171,-7.1695,-7.1695,-7.188,-7.1883,-7.1885,-7.1805,-7.1799,-7.1792,-7.1786,-7.1956,-7.1968,-7.1981,-7.219,0,0,-7.202,-7.2026,0,0,0,0,0,0,0,0,-7.1476,-7.1501,-7.1695,-7.1696,-7.1697,-7.1814,-7.1806,-7.1987,-7.1807,-7.1763,-7.179,-7.1783,-7.1918,-7.1933,-7.1979,-7.2198,-7.2205,-7.2021,-7.2029,-7.2035,-7.2038,0,0,0,0,0,0,0,-7.1465,-7.1493,-7.1778,-7.1698,-7.1699,-7.1678,-7.1696,-7.184,-7.1875,-7.1767,-7.1761,-7.1782,-7.1917,-7.1967,-7.1983,-7.2208,-7.2021,-7.2032,-7.204,-7.2045,-7.2607,-7.2614,0,0,0,0,0,0,-7.1454,-7.1484,-7.1772,-7.1783,-7.1568,-7.1691,-7.171,-7.1783,-7.1873,-7.188,-7.1788,-7.1778,-7.1948,-7.1968,-7.1988,-7.224,-7.2035,-7.2047,-7.2054,-7.26,-7.2609,-7.2616,0,0,0,0,0,0,-7.1445,-7.148,-7.1766,-7.1632,-7.1667,-7.1705,-7.1787,-7.179,-7.184,-7.1889,-7.1895,-7.1833,-7.1944,-7.197,-7.2141,-7.2245,-7.2052,-7.2064,-7.2591,-7.2603,-7.2612,-7.2744,0,0,0,0,0,0,-7.1434,-7.1478,-7.1558,-7.1634,-7.1674,-7.1916,-7.1794,-7.1798,-7.1862,-7.1851,-7.1933,-7.194,-7.1941,-7.2122,-7.2154,-7.2259,-7.2074,-7.2582,-7.2596,-7.2609,-7.2731,-7.2758,-7.2781,0,0,0,0,0,-7.1421,-7.1588,-7.1563,-7.1598,-7.1776,-7.1922,-7.1945,-7.1944,-7.1871,-7.1952,-7.1984,-7.1937,-7.2228,-7.214,-7.2175,-7.2286,-7.2576,-7.2592,-7.2608,-7.2719,-7.2753,-7.2781,0,0,0,0,0,0,-7.1522,-7.1598,-7.157,-7.1768,-7.1839,-7.1908,-7.2011,-7.1979,-7.2072,-7.2058,-7.2051,-7.207,-7.2247,-7.2283,-7.2184,-7.2493,-7.2391,-7.2415,-7.2463,-7.2495,-7.252,-7.2508,-7.2085,0,0,0,0,0,-7.1568,-7.1681,-7.1741,-7.1909,-7.1946,-7.1973,-7.2036,-7.2029,-7.2103,-7.2132,-7.2176,-7.2249,-7.2357,-7.2428,-7.2529,-7.2735,-7.2752,-7.2828,-7.2854,-7.2874,-7.2895,-7.3007,-7.3042,-7.2669,-7.2669,-7.2669,0,0,-7.1663,-7.1718,-7.179,-7.1931,-7.1985,-7.2103,-7.1999,-7.2127,-7.2214,-7.2152,-7.2316,-7.2351,-7.2431,-7.262,-7.2706,-7.2656,-7.3002,-7.2895,-7.2911,-7.2921,-7.3027,-7.3062,-7.3094,-7.268,-7.2678,-7.2677,0,0,-7.1896,-7.1949,-7.2095,-7.2152,-7.2237,-7.2253,-7.2288,-7.2363,-7.2384,-7.2549,-7.2505,-7.2607,-7.2793,-7.2852,-7.2906,-7.3162,-7.3123,-7.3195,-7.3329,-7.3438,-7.3467,-7.3493,-7.3585,-7.3618,-7.3216,-7.3216,-7.3217,0,-7.2003,-7.2179,-7.2174,-7.2307,-7.237,-7.232,-7.2467,-7.2523,-7.2636,-7.268,-7.2623,-7.2855,-7.2906,-7.3108,-7.3171,-7.3216,-7.3256,-7.3187,-7.3463,-7.3489,-7.3513,-7.3601,-7.3635,-7.3225,-7.3224,-7.3223,-7.3222,0,-7.2307,-7.2429,-7.2537,-7.2649,-7.2724,-7.2863,-7.2879,-7.2956,-7.2942,-7.2964,-7.3132,-7.3191,-7.3304,-7.3352,-7.3339,-7.3553,-7.3519,-7.3463,-7.336,-7.3557,-7.3639,-7.3673,-7.3237,-7.3234,-7.3231,-7.3229,0,0,-7.2609,-7.2717,-7.2756,-7.2807,-7.2896,-7.2991,-7.3127,-7.3239,-7.3305,-7.3384,-7.3499,-7.3657,-7.3606,-7.3668,-7.3661,-7.3757,-7.3956,-7.3688,-7.369,-7.3737,-7.4196,-7.4239,-7.4277,-7.393,-7.3937,-7.3942,-7.4189,0,-7.2849,-7.309,-7.309,-7.3312,-7.3425,-7.3379,-7.3498,-7.3566,-7.359,-7.3689,-7.3715,-7.3828,-7.3751,-7.3788,-7.3881,-7.3912,-7.4048,-7.3894,-7.4037,-7.4042,-7.4019,-7.432,-7.4366,-7.4597,-7.4221,-7.4227,-7.4231,0,-7.3162,-7.3253,-7.3487,-7.356,-7.3607,-7.3715,-7.3817,-7.3912,-7.3988,-7.3999,-7.4068,-7.4047,-7.4186,-7.4078,-7.4269,-7.4164,-7.4222,-7.4247,-7.4255,-7.4269,-7.4149,-7.4343,-7.467,-7.4705,-7.4281,-7.4277,-7.4273,0,-7.336,-7.354,-7.3704,-7.3748,-7.3838,-7.3914,-7.3955,-7.4024,-7.4091,-7.418,-7.4224,-7.4327,-7.4384,-7.4464,-7.4471,-7.4392,-7.4664,-7.4557,-7.4677,-7.4677,-7.4737,-7.4733,-7.5079,-7.4773,-7.4773,-7.4772,-7.4771,0,-7.3628,-7.3774,-7.3794,-7.3895,-7.4056,-7.4054,-7.4213,-7.4247,-7.4309,-7.4415,-7.438,-7.448,-7.4483,-7.4585,-7.4591,-7.4748,-7.4774,-7.4786,-7.4786,-7.479,-7.4789,-7.4829,-7.4813,-7.4781,-7.4779,-7.4777,-7.4776,0,-7.3877,-7.3897,-7.4072,-7.4143,-7.4164,-7.428,-7.434,-7.4435,-7.4456,-7.4591,-7.4622,-7.4655,-7.4773,-7.4788,-7.4926,-7.493,-7.512,-7.5102,-7.5095,-7.5092,-7.5212,-7.5201,-7.5596,-7.5648,-7.5308,-7.5311,-7.5314,0,-7.4048,-7.4159,-7.4241,-7.431,-7.4356,-7.4467,-7.4536,-7.4537,-7.461,-7.4704,-7.4789,-7.4904,-7.4996,-7.5187,-7.5223,-7.5328,-7.5313,-7.5444,-7.5329,-7.5329,-7.5316,-7.531,-7.5321,-7.5467,-7.5471,-7.5474,-7.5476,0,-7.4349,-7.4353,-7.4454,-7.4559,-7.4642,-7.4724,-7.4801,-7.4859,-7.4871,-7.4954,-7.5075,-7.5147,-7.5288,-7.5403,-7.5507,-7.5547,-7.5515,-7.5512,-7.5546,-7.5551,-7.5543,-7.555,-7.5157,-7.5503,-7.5501,-7.5499,-7.5497,-7.5496,-7.4564,-7.4661,-7.4735,-7.4848,-7.4906,-7.4979,-7.5073,-7.5106,-7.5207,-7.5323,-7.5318,-7.5451,-7.5523,-7.566,-7.5708,-7.5812,-7.5768,-7.5817,-7.5829,-7.5841,-7.5854,-7.5526,-7.5831,-7.583,-7.5829,-7.5828,-7.5828,0,-7.4864,-7.4909,-7.5014,-7.5123,-7.5213,-7.5174,-7.5258,-7.5335,-7.5453,-7.5523,-7.5615,-7.5755,-7.5866,-7.591,-7.6019,-7.6093,-7.6081,-7.6122,-7.6117,-7.6127,-7.5886,-7.5847,-7.613,-7.613,-7.613,-7.613,-7.613,-7.613,-7.5031,-7.5192,-7.5205,-7.5395,-7.5439,-7.5571,-7.5622,-7.5689,-7.5745,-7.5903,-7.5995,-7.6023,-7.6084,-7.6196,-7.6296,-7.6306,-7.6348,-7.6396,-7.64,-7.6174,-7.6144,-7.6115,-7.6078,-7.6405,-7.6406,-7.6632,-7.6634,-7.6636]}]]